Time,TemperatureF,DewpointF,PressureIn,WindDirection,WindDirectionDegrees,WindSpeedMPH,WindSpeedGustMPH,Humidity,HourlyPrecipIn,Conditions,Clouds,dailyrainin,SoftwareType,DateUTC
2013-08-26 00:01:00,78.4,77.8,29.96,ESE,112,5.3,-999.0,98,-99.99,,,0.00,Acu-Link.com,2013-08-26 04:01:00,
2013-08-26 00:17:00,78.3,77.7,29.97,ESE,112,3.7,-999.0,98,-99.99,,,0.00,Acu-Link.com,2013-08-26 04:17:00,
2013-08-26 00:32:00,78.3,77.7,29.96,ESE,112,4.7,-999.0,98,-99.99,,,0.00,Acu-Link.com,2013-08-26 04:32:00,
2013-08-26 00:47:00,78.1,77.5,29.96,East,90,4.7,-999.0,98,-99.99,,,0.00,Acu-Link.com,2013-08-26 04:47:00,
2013-08-26 01:02:00,77.9,77.3,29.96,East,90,4.7,-999.0,98,-99.99,,,0.00,Acu-Link.com,2013-08-26 05:02:00,
2013-08-26 01:17:00,77.4,76.8,29.96,ESE,112,5.8,-999.0,98,-99.99,,,0.00,Acu-Link.com,2013-08-26 05:17:00,
2013-08-26 01:33:00,77.2,76.6,29.95,East,90,4.2,-999.0,98,-99.99,,,0.00,Acu-Link.com,2013-08-26 05:33:00,
2013-08-26 01:48:00,77.0,76.4,29.95,East,90,4.7,-999.0,98,-99.99,,,0.00,Acu-Link.com,2013-08-26 05:48:00,
2013-08-26 02:03:00,76.6,76.0,29.95,East,90,5.3,-999.0,98,-99.99,,,0.00,Acu-Link.com,2013-08-26 06:03:00,
2013-08-26 02:18:00,76.1,75.5,29.95,ESE,112,3.7,-999.0,98,-99.99,,,0.00,Acu-Link.com,2013-08-26 06:18:00,
2013-08-26 02:33:00,76.1,75.5,29.94,East,90,3.7,-999.0,98,-99.99,,,0.00,Acu-Link.com,2013-08-26 06:33:00,
2013-08-26 02:49:00,75.9,75.3,29.93,ESE,112,4.2,-999.0,98,-99.99,,,0.00,Acu-Link.com,2013-08-26 06:49:00,
2013-08-26 03:04:00,75.7,75.1,29.93,ESE,112,4.2,-999.0,98,-99.99,,,0.00,Acu-Link.com,2013-08-26 07:04:00,
2013-08-26 03:19:00,75.7,75.1,29.93,ENE,67,4.7,-999.0,98,-99.99,,,0.00,Acu-Link.com,2013-08-26 07:19:00,
2013-08-26 03:34:00,75.7,75.1,29.92,ENE,67,4.2,-999.0,98,-99.99,,,0.00,Acu-Link.com,2013-08-26 07:34:00,
2013-08-26 03:50:00,75.7,75.1,29.92,East,90,3.7,-999.0,98,-99.99,,,0.00,Acu-Link.com,2013-08-26 07:50:00,
2013-08-26 04:05:00,75.6,75.0,29.92,ESE,112,6.8,-999.0,98,-99.99,,,0.00,Acu-Link.com,2013-08-26 08:05:00,
2013-08-26 04:21:00,75.6,75.0,29.92,ESE,112,5.3,-999.0,98,-99.99,,,0.00,Acu-Link.com,2013-08-26 08:21:00,
2013-08-26 04:36:00,75.6,75.0,29.92,ESE,112,4.2,-999.0,98,-99.99,,,0.00,Acu-Link.com,2013-08-26 08:36:00,
2013-08-26 04:51:00,75.6,75.0,29.92,ESE,112,3.7,-999.0,98,-99.99,,,0.00,Acu-Link.com,2013-08-26 08:51:00,
2013-08-26 05:06:00,75.4,74.8,29.92,ESE,112,5.8,-999.0,98,-99.99,,,0.00,Acu-Link.com,2013-08-26 09:06:00,
2013-08-26 05:21:00,75.4,74.8,29.92,ESE,112,3.7,-999.0,98,-99.99,,,0.00,Acu-Link.com,2013-08-26 09:21:00,
2013-08-26 05:36:00,75.4,74.8,29.92,ENE,67,4.7,-999.0,98,-99.99,,,0.00,Acu-Link.com,2013-08-26 09:36:00,
2013-08-26 05:52:00,75.2,74.6,29.93,ESE,112,4.2,-999.0,98,-99.99,,,0.00,Acu-Link.com,2013-08-26 09:52:00,
2013-08-26 06:07:00,75.4,74.8,29.94,East,90,4.2,-999.0,98,-99.99,,,0.00,Acu-Link.com,2013-08-26 10:07:00,
2013-08-26 06:22:00,75.2,74.6,29.94,ESE,112,4.7,-999.0,98,-99.99,,,0.00,Acu-Link.com,2013-08-26 10:22:00,
2013-08-26 06:37:00,75.2,74.6,29.93,East,90,3.7,-999.0,98,-99.99,,,0.00,Acu-Link.com,2013-08-26 10:37:00,
2013-08-26 06:53:00,75.4,74.8,29.94,East,90,3.7,-999.0,98,-99.99,,,0.00,Acu-Link.com,2013-08-26 10:53:00,
2013-08-26 07:08:00,75.4,74.8,29.93,East,90,4.7,-999.0,98,-99.99,,,0.00,Acu-Link.com,2013-08-26 11:08:00,
2013-08-26 07:23:00,75.2,74.6,29.93,East,90,4.7,-999.0,98,-99.99,,,0.00,Acu-Link.com,2013-08-26 11:23:00,
2013-08-26 07:38:00,76.1,75.5,29.94,East,90,2.7,-999.0,98,-99.99,,,0.00,Acu-Link.com,2013-08-26 11:38:00,
2013-08-26 07:54:00,77.2,76.6,29.94,East,90,2.2,-999.0,98,-99.99,,,0.00,Acu-Link.com,2013-08-26 11:54:00,
2013-08-26 08:09:00,77.9,77.3,29.94,ESE,112,3.7,-999.0,98,-99.99,,,0.00,Acu-Link.com,2013-08-26 12:09:00,
2013-08-26 08:24:00,78.1,77.5,29.94,East,90,3.7,-999.0,98,-99.99,,,0.00,Acu-Link.com,2013-08-26 12:24:00,
2013-08-26 08:40:00,78.4,77.8,29.95,East,90,5.8,-999.0,98,-99.99,,,0.00,Acu-Link.com,2013-08-26 12:40:00,
2013-08-26 08:55:00,78.8,78.2,29.95,ESE,112,4.7,-999.0,98,-99.99,,,0.00,Acu-Link.com,2013-08-26 12:55:00,
2013-08-26 09:10:00,78.8,78.2,29.95,ESE,112,4.7,-999.0,98,-99.99,,,0.00,Acu-Link.com,2013-08-26 13:10:00,
2013-08-26 09:25:00,79.5,78.9,29.95,ESE,112,5.8,-999.0,98,-99.99,,,0.00,Acu-Link.com,2013-08-26 13:25:00,
2013-08-26 09:40:00,79.9,79.3,29.95,ESE,112,3.2,-999.0,98,-99.99,,,0.00,Acu-Link.com,2013-08-26 13:40:00,
2013-08-26 09:55:00,81.0,80.4,29.95,SE,135,5.8,-999.0,98,-99.99,,,0.00,Acu-Link.com,2013-08-26 13:55:00,
2013-08-26 10:10:00,80.8,80.2,29.95,ESE,112,4.7,-999.0,98,-99.99,,,0.00,Acu-Link.com,2013-08-26 14:10:00,
2013-08-26 10:26:00,81.3,80.7,29.95,ESE,112,5.8,-999.0,98,-99.99,,,0.00,Acu-Link.com,2013-08-26 14:26:00,
2013-08-26 10:41:00,83.3,82.7,29.94,ESE,112,4.2,-999.0,98,-99.99,,,0.00,Acu-Link.com,2013-08-26 14:41:00,
2013-08-26 10:56:00,83.7,83.1,29.95,ESE,112,5.8,-999.0,98,-99.99,,,0.00,Acu-Link.com,2013-08-26 14:56:00,
2013-08-26 11:11:00,84.9,84.3,29.94,South,180,6.3,-999.0,98,-99.99,,,0.00,Acu-Link.com,2013-08-26 15:11:00,
2013-08-26 11:26:00,85.3,84.7,29.94,ESE,112,7.3,-999.0,98,-99.99,,,0.00,Acu-Link.com,2013-08-26 15:26:00,
2013-08-26 11:41:00,86.4,85.8,29.94,SSE,157,3.2,-999.0,98,-99.99,,,0.00,Acu-Link.com,2013-08-26 15:41:00,
2013-08-26 11:56:00,86.5,85.9,29.94,SSE,157,5.3,-999.0,98,-99.99,,,0.00,Acu-Link.com,2013-08-26 15:56:00,
2013-08-26 12:12:00,86.9,86.3,29.93,NNE,22,2.7,-999.0,98,-99.99,,,0.00,Acu-Link.com,2013-08-26 16:12:00,
2013-08-26 12:27:00,85.5,84.9,29.94,NNW,337,0.0,-999.0,98,-99.99,,,0.00,Acu-Link.com,2013-08-26 16:27:00,
2013-08-26 12:42:00,88.2,85.9,29.92,SSE,157,2.7,-999.0,93,-99.99,,,0.00,Acu-Link.com,2013-08-26 16:42:00,
2013-08-26 12:57:00,86.7,86.1,29.91,East,90,4.7,-999.0,98,-99.99,,,0.00,Acu-Link.com,2013-08-26 16:57:00,
2013-08-26 13:13:00,87.3,86.7,29.90,East,90,5.3,-999.0,98,-99.99,,,0.00,Acu-Link.com,2013-08-26 17:13:00,
2013-08-26 13:28:00,88.9,87.9,29.91,North,0,1.1,-999.0,97,-99.99,,,0.00,Acu-Link.com,2013-08-26 17:28:00,
2013-08-26 13:43:00,87.3,86.7,29.90,ENE,67,2.7,-999.0,98,-99.99,,,0.00,Acu-Link.com,2013-08-26 17:43:00,
2013-08-26 13:58:00,83.1,82.5,29.91,SSW,202,6.8,-999.0,98,-99.99,,,0.00,Acu-Link.com,2013-08-26 17:58:00,
2013-08-26 14:13:00,81.9,81.3,29.91,SSW,202,3.2,-999.0,98,-99.99,,,0.00,Acu-Link.com,2013-08-26 18:13:00,
2013-08-26 14:28:00,81.1,80.5,29.90,SW,225,3.2,-999.0,98,-99.99,,,0.00,Acu-Link.com,2013-08-26 18:28:00,
2013-08-26 14:44:00,81.1,80.5,29.90,SSW,202,2.7,-999.0,98,-99.99,,,0.00,Acu-Link.com,2013-08-26 18:44:00,
2013-08-26 14:59:00,81.0,80.4,29.89,SE,135,5.8,-999.0,98,-99.99,,,0.00,Acu-Link.com,2013-08-26 18:59:00,
2013-08-26 15:14:00,80.2,79.6,29.89,East,90,6.3,-999.0,98,-99.99,,,0.00,Acu-Link.com,2013-08-26 19:14:00,
2013-08-26 15:29:00,80.1,79.5,29.88,NE,45,3.2,-999.0,98,-99.99,,,0.00,Acu-Link.com,2013-08-26 19:29:00,
2013-08-26 15:44:00,79.3,78.7,29.88,ESE,112,5.3,-999.0,98,-99.99,,,0.00,Acu-Link.com,2013-08-26 19:44:00,
2013-08-26 15:59:00,78.6,78.0,29.85,ESE,112,6.8,-999.0,98,-99.99,,,0.00,Acu-Link.com,2013-08-26 19:59:00,
2013-08-26 16:15:00,78.6,78.0,29.85,East,90,5.3,-999.0,98,-99.99,,,0.00,Acu-Link.com,2013-08-26 20:15:00,
2013-08-26 16:30:00,79.0,78.4,29.86,ENE,67,8.3,-999.0,98,-99.99,,,0.00,Acu-Link.com,2013-08-26 20:30:00,
2013-08-26 16:45:00,79.7,79.1,29.85,East,90,4.7,-999.0,98,-99.99,,,0.00,Acu-Link.com,2013-08-26 20:45:00,
2013-08-26 17:00:00,81.1,80.5,29.85,ESE,112,5.8,-999.0,98,-99.99,,,0.00,Acu-Link.com,2013-08-26 21:00:00,
2013-08-26 17:15:00,82.2,81.6,29.84,ESE,112,9.9,-999.0,98,-99.99,,,0.00,Acu-Link.com,2013-08-26 21:15:00,
2013-08-26 17:30:00,82.6,82.0,29.84,ESE,112,7.8,-999.0,98,-99.99,,,0.00,Acu-Link.com,2013-08-26 21:30:00,
2013-08-26 17:46:00,82.4,81.8,29.84,ESE,112,7.3,-999.0,98,-99.99,,,0.00,Acu-Link.com,2013-08-26 21:46:00,
2013-08-26 18:01:00,83.1,82.5,29.84,ESE,112,7.8,-999.0,98,-99.99,,,0.00,Acu-Link.com,2013-08-26 22:01:00,
2013-08-26 18:16:00,83.7,83.1,29.84,ENE,67,6.3,-999.0,98,-99.99,,,0.00,Acu-Link.com,2013-08-26 22:16:00,
2013-08-26 18:31:00,84.2,83.6,29.83,East,90,6.3,-999.0,98,-99.99,,,0.00,Acu-Link.com,2013-08-26 22:31:00,
2013-08-26 18:47:00,77.2,76.6,29.85,SSW,202,4.7,-999.0,98,-99.99,,,0.34,Acu-Link.com,2013-08-26 22:47:00,
2013-08-26 19:02:00,77.7,77.1,29.86,NW,315,1.7,-999.0,98,-99.99,,,0.38,Acu-Link.com,2013-08-26 23:02:00,
2013-08-26 19:17:00,77.7,77.1,29.86,SW,225,0.0,-999.0,98,-99.99,,,0.38,Acu-Link.com,2013-08-26 23:17:00,
2013-08-26 19:32:00,77.4,76.8,29.86,NE,45,1.7,-999.0,98,-99.99,,,0.38,Acu-Link.com,2013-08-26 23:32:00,
2013-08-26 19:47:00,77.0,76.4,29.86,North,0,0.0,-999.0,98,-99.99,,,0.38,Acu-Link.com,2013-08-26 23:47:00,
2013-08-26 20:02:00,76.8,76.2,29.87,North,0,2.2,-999.0,98,-99.99,,,0.38,Acu-Link.com,2013-08-27 00:02:00,
2013-08-26 20:18:00,77.0,76.4,29.87,NW,315,0.0,-999.0,98,-99.99,,,0.38,Acu-Link.com,2013-08-27 00:18:00,
2013-08-26 20:33:00,77.0,76.4,29.88,WNW,292,0.0,-999.0,98,-99.99,,,0.38,Acu-Link.com,2013-08-27 00:33:00,
2013-08-26 20:48:00,76.8,76.2,29.88,West,270,0.0,-999.0,98,-99.99,,,0.38,Acu-Link.com,2013-08-27 00:48:00,
2013-08-26 21:04:00,77.0,76.4,29.88,WNW,292,0.0,-999.0,98,-99.99,,,0.38,Acu-Link.com,2013-08-27 01:04:00,
2013-08-26 21:19:00,77.0,76.4,29.89,NW,315,0.0,-999.0,98,-99.99,,,0.38,Acu-Link.com,2013-08-27 01:19:00,
2013-08-26 21:34:00,77.5,76.9,29.90,NNW,337,0.0,-999.0,98,-99.99,,,0.38,Acu-Link.com,2013-08-27 01:34:00,
2013-08-26 21:50:00,77.2,76.6,29.90,West,270,2.7,-999.0,98,-99.99,,,0.38,Acu-Link.com,2013-08-27 01:50:00,
2013-08-26 22:05:00,76.6,76.0,29.89,East,90,0.0,-999.0,98,-99.99,,,0.38,Acu-Link.com,2013-08-27 02:05:00,
2013-08-26 22:20:00,76.1,75.5,29.89,NNE,22,0.0,-999.0,98,-99.99,,,0.38,Acu-Link.com,2013-08-27 02:20:00,
2013-08-26 22:35:00,75.7,75.1,29.89,NW,315,0.0,-999.0,98,-99.99,,,0.38,Acu-Link.com,2013-08-27 02:35:00,
2013-08-26 22:50:00,75.6,75.0,29.90,NNE,22,0.0,-999.0,98,-99.99,,,0.38,Acu-Link.com,2013-08-27 02:50:00,
2013-08-26 23:06:00,75.4,74.8,29.91,West,270,0.0,-999.0,98,-99.99,,,0.38,Acu-Link.com,2013-08-27 03:06:00,
2013-08-26 23:21:00,75.4,74.8,29.89,ESE,112,1.1,-999.0,98,-99.99,,,0.39,Acu-Link.com,2013-08-27 03:21:00,
2013-08-26 23:36:00,75.2,74.6,29.89,East,90,0.0,-999.0,98,-99.99,,,0.39,Acu-Link.com,2013-08-27 03:36:00,
2013-08-26 23:52:00,74.8,74.2,29.90,East,90,0.0,-999.0,98,-99.99,,,0.39,Acu-Link.com,2013-08-27 03:52:00,